Change the Weather History Date:

Saturday, June 22, 2013

  Actual Average Record
Temperature  
Mean Temperature 66 °F 68 °F  
Max Temperature 78 °F 82 °F 98 °F (2000)
Min Temperature 53 °F 54 °F 39 °F (2004)
Degree Days  
Heating Degree Days 0 2  
Month to date heating degree days 77 77  
Since 1 June heating degree days 77 77  
Since 1 July heating degree days 7150 7204  
Cooling Degree Days 1 5  
Month to date cooling degree days 44 65  
Year to date cooling degree days 61 82  
Since 1 June cooling degree days 44 65  
Growing Degree Days 15 (Base 50)    
Moisture  
Dew Point 56 °F    
Average Humidity 74    
Maximum Humidity 93    
Minimum Humidity 54    
Precipitation  
Precipitation 0.02 in 0.12 in 0.56 in (1998)
Month to date precipitation 1.86 2.68  
Year to date precipitation 9.62 8.92  
Sea Level Pressure  
Sea Level Pressure 29.83 in    
Wind  
Wind Speed 6 mph (NE)    
Max Wind Speed 20 mph    
Max Gust Speed 29 mph    
Visibility 10 miles    
Events Rain    
T = Trace of Precipitation, MM = Missing Value Source: NWS Daily Summary

Daily Weather History Graph

Daily Weather History Graph

Search for Another Location

Airport or City:

Trip Planner

Search our weather history database for the weather conditions in past years. The results will help you decide how hot, cold, wet, or windy it might be!

Date:

Astronomy

Jun. 22, 2013 Rise Set
Actual Time 5:11 AM MDT 8:33 PM MDT
Civil Twilight 4:35 AM MDT 9:08 PM MDT
Nautical Twilight 3:49 AM MDT 9:54 PM MDT
Astronomical Twilight 2:52 AM MDT 10:51 PM MDT
Moon 7:48 PM MDT (6/22) 4:27 AM MDT (6/22)
Length of Visible Light 16h 32m
Length of Day
15h 21m
Waxing Gibbous, 99% of the Moon is Illuminated
Jun 22
Waxing Gibbous
Jun 23
Full
Jun 29
Last Quarter
Jul 8
New
Jul 15
First Quarter

Hourly Weather History & Observations

Time (MDT) Temp. Dew Point Humidity Pressure Visibility Wind Dir Wind Speed Gust Speed Precip Events Conditions
12:52 AM 57.9 °F 53.1 °F 84% 29.82 in 10.0 mi NE 4.6 mph - N/A   Clear
1:52 AM 59.0 °F 53.1 °F 81% 29.82 in 10.0 mi Variable 3.5 mph - N/A   Clear
2:52 AM 57.0 °F 52.0 °F 83% 29.82 in 10.0 mi NNW 6.9 mph - N/A   Clear
3:52 AM 55.9 °F 53.1 °F 90% 29.82 in 10.0 mi NW 3.5 mph - N/A   Clear
4:52 AM 55.9 °F 52.0 °F 87% 29.86 in 10.0 mi North 4.6 mph - N/A   Clear
5:52 AM 53.1 °F 52.0 °F 96% 29.92 in 10.0 mi Calm Calm - N/A   Clear
6:52 AM 55.9 °F 54.0 °F 93% 29.93 in 10.0 mi Calm Calm - N/A   Clear
7:52 AM 61.0 °F 55.0 °F 81% 29.93 in 10.0 mi Calm Calm - N/A   Clear
8:52 AM 64.9 °F 55.9 °F 73% 29.92 in 10.0 mi Calm Calm - N/A   Clear
9:52 AM 70.0 °F 57.9 °F 65% 29.90 in 10.0 mi ENE 4.6 mph - N/A   Clear
10:52 AM 72.0 °F 57.0 °F 59% 29.88 in 10.0 mi ENE 10.4 mph - N/A   Clear
11:52 AM 75.0 °F 59.0 °F 57% 29.86 in 10.0 mi Variable 6.9 mph - N/A   Clear
12:52 PM 75.0 °F 57.9 °F 55% 29.85 in 10.0 mi East 9.2 mph - N/A   Scattered Clouds
1:52 PM 77.0 °F 59.0 °F 54% 29.82 in 10.0 mi ENE 6.9 mph 16.1 mph N/A   Overcast
2:52 PM 77.0 °F 59.0 °F 54% 29.79 in 10.0 mi East 9.2 mph - N/A   Mostly Cloudy
3:52 PM 75.9 °F 59.0 °F 56% 29.77 in 10.0 mi East 6.9 mph - N/A   Clear
4:52 PM 75.0 °F 61.0 °F 62% 29.75 in 10.0 mi East 3.5 mph - N/A   Clear
5:52 PM 73.9 °F 61.0 °F 64% 29.78 in 10.0 mi Calm Calm - N/A   Scattered Clouds
6:52 PM 73.0 °F 64.0 °F 73% 29.78 in 10.0 mi East 3.5 mph - N/A   Partly Cloudy
7:52 PM 69.1 °F 59.0 °F 70% 29.85 in 10.0 mi WNW 13.8 mph 28.8 mph 0.00 in Rain Light Rain
8:52 PM 57.9 °F 54.0 °F 87% 29.84 in 10.0 mi ESE 6.9 mph - 0.01 in Rain Light Rain
9:52 PM 57.9 °F 55.0 °F 90% 29.75 in 10.0 mi NW 8.1 mph - 0.01 in   Scattered Clouds
10:52 PM 59.0 °F 55.9 °F 90% 29.75 in 10.0 mi NW 16.1 mph 23.0 mph N/A   Clear
11:52 PM 57.9 °F 55.0 °F 90% 29.79 in 10.0 mi East 5.8 mph - N/A   Clear